Time,TemperatureF,DewpointF,PressureIn,WindDirection,WindDirectionDegrees,WindSpeedMPH,WindSpeedGustMPH,Humidity,HourlyPrecipIn,Conditions,Clouds,dailyrainin,SoftwareType,DateUTC
2013-04-08 00:03:00,60.0,53.0,30.12,ESE,103,0.0,4.0,79,0.00,,,0.00,,2013-04-08 04:03:00,
2013-04-08 00:12:00,60.0,53.0,30.12,ESE,103,0.0,4.0,79,0.00,,,0.00,,2013-04-08 04:12:00,
2013-04-08 00:23:00,59.0,54.0,30.11,SW,226,0.0,3.0,82,0.00,,,0.00,,2013-04-08 04:23:00,
2013-04-08 00:33:00,59.0,55.0,30.11,SSE,163,0.0,4.0,86,0.00,,,0.00,,2013-04-08 04:33:00,
2013-04-08 00:44:00,59.0,55.0,30.11,SSE,163,0.0,4.0,86,0.00,,,0.00,,2013-04-08 04:44:00,
2013-04-08 00:53:00,59.0,55.0,30.11,SE,125,1.0,3.0,86,0.00,,,0.00,,2013-04-08 04:53:00,
2013-04-08 01:02:00,59.0,55.0,30.11,SE,134,2.0,4.0,87,0.00,,,0.00,,2013-04-08 05:02:00,
2013-04-08 01:12:00,59.0,55.0,30.11,SE,134,2.0,4.0,87,0.00,,,0.00,,2013-04-08 05:12:00,
2013-04-08 01:22:00,59.0,55.0,30.11,SE,134,2.0,4.0,87,0.00,,,0.00,,2013-04-08 05:22:00,
2013-04-08 01:32:00,59.0,56.0,30.11,South,172,2.0,6.0,90,0.00,,,0.00,,2013-04-08 05:32:00,
2013-04-08 01:42:00,59.0,56.0,30.11,SSE,160,3.0,5.0,90,0.00,,,0.00,,2013-04-08 05:42:00,
2013-04-08 01:53:00,59.0,56.0,30.11,SSE,160,3.0,5.0,90,0.00,,,0.00,,2013-04-08 05:53:00,
2013-04-08 02:02:00,59.0,56.0,30.11,SSW,201,2.0,5.0,91,0.00,,,0.00,,2013-04-08 06:02:00,
2013-04-08 02:12:00,59.0,57.0,30.12,SSE,148,1.0,4.0,92,0.00,,,0.00,,2013-04-08 06:12:00,
2013-04-08 02:22:00,59.0,57.0,30.12,SSE,148,1.0,4.0,92,0.00,,,0.00,,2013-04-08 06:22:00,
2013-04-08 02:32:00,58.0,56.0,30.12,SSE,148,1.0,3.0,94,0.00,,,0.00,,2013-04-08 06:32:00,
2013-04-08 02:43:00,58.0,56.0,30.12,SSE,148,1.0,3.0,94,0.00,,,0.00,,2013-04-08 06:43:00,
2013-04-08 02:52:00,58.0,57.0,30.11,SSW,193,3.0,5.0,95,0.00,,,0.00,,2013-04-08 06:52:00,
2013-04-08 03:02:00,59.0,58.0,30.11,South,179,2.0,4.0,95,0.00,,,0.00,,2013-04-08 07:02:00,
2013-04-08 03:12:00,58.0,57.0,30.11,South,170,1.0,4.0,96,0.00,,,0.00,,2013-04-08 07:12:00,
2013-04-08 03:22:00,58.0,57.0,30.11,South,170,1.0,4.0,96,0.00,,,0.00,,2013-04-08 07:22:00,
2013-04-08 03:33:00,58.0,57.0,30.11,South,170,1.0,4.0,96,0.00,,,0.00,,2013-04-08 07:33:00,
2013-04-08 03:42:00,58.0,57.0,30.11,South,170,1.0,4.0,96,0.00,,,0.00,,2013-04-08 07:42:00,
2013-04-08 03:52:00,57.0,56.0,30.11,South,190,2.0,3.0,97,0.00,,,0.00,,2013-04-08 07:52:00,
2013-04-08 04:02:00,57.0,56.0,30.11,SSE,148,1.0,3.0,97,0.00,,,0.00,,2013-04-08 08:02:00,
2013-04-08 04:12:00,57.0,56.0,30.11,SSE,148,1.0,3.0,97,0.00,,,0.00,,2013-04-08 08:12:00,
2013-04-08 04:22:00,57.0,56.0,30.11,SSE,148,1.0,3.0,97,0.00,,,0.00,,2013-04-08 08:22:00,
2013-04-08 04:33:00,57.0,56.0,30.11,SW,229,1.0,2.0,98,0.00,,,0.00,,2013-04-08 08:33:00,
2013-04-08 04:42:00,57.0,56.0,30.11,SE,125,1.0,3.0,98,0.00,,,0.00,,2013-04-08 08:42:00,
2013-04-08 04:52:00,57.0,56.0,30.11,SE,125,1.0,3.0,98,0.00,,,0.00,,2013-04-08 08:52:00,
2013-04-08 05:02:00,57.0,56.0,30.11,South,180,1.0,5.0,98,0.00,,,0.00,,2013-04-08 09:02:00,
2013-04-08 05:12:00,57.0,57.0,30.11,East,101,0.0,3.0,99,0.00,,,0.00,,2013-04-08 09:12:00,
2013-04-08 05:22:00,57.0,57.0,30.11,East,101,0.0,3.0,99,0.00,,,0.00,,2013-04-08 09:22:00,
2013-04-08 05:33:00,57.0,57.0,30.11,SW,226,0.0,2.0,99,0.00,,,0.00,,2013-04-08 09:33:00,
2013-04-08 05:43:00,57.0,57.0,30.11,WSW,253,1.0,4.0,100,0.00,,,0.00,,2013-04-08 09:43:00,
2013-04-08 05:53:00,57.0,57.0,30.11,WSW,253,1.0,4.0,100,0.00,,,0.00,,2013-04-08 09:53:00,
2013-04-08 06:03:00,57.0,57.0,30.11,West,260,2.0,4.0,100,0.00,,,0.00,,2013-04-08 10:03:00,
2013-04-08 06:13:00,57.0,57.0,30.11,West,260,2.0,4.0,100,0.00,,,0.00,,2013-04-08 10:13:00,
2013-04-08 06:23:00,57.0,57.0,30.12,SW,226,3.0,6.0,100,0.00,,,0.00,,2013-04-08 10:23:00,
2013-04-08 06:33:00,57.0,57.0,30.13,West,264,2.0,5.0,100,0.00,,,0.00,,2013-04-08 10:33:00,
2013-04-08 06:42:00,57.0,57.0,30.13,West,264,2.0,5.0,100,0.00,,,0.00,,2013-04-08 10:42:00,
2013-04-08 06:53:00,56.0,56.0,30.13,South,172,0.0,0.0,100,0.00,,,0.00,,2013-04-08 10:53:00,
2013-04-08 07:02:00,55.0,55.0,30.14,South,172,0.0,0.0,100,0.00,,,0.00,,2013-04-08 11:02:00,
2013-04-08 07:12:00,54.0,54.0,30.15,South,172,0.0,0.0,100,0.00,,,0.00,,2013-04-08 11:12:00,
2013-04-08 07:23:00,54.0,54.0,30.15,South,172,0.0,0.0,100,0.00,,,0.00,,2013-04-08 11:23:00,
2013-04-08 07:32:00,53.0,53.0,30.16,South,172,0.0,0.0,100,0.00,,,0.00,,2013-04-08 11:32:00,
2013-04-08 07:42:00,53.0,53.0,30.16,South,172,0.0,0.0,100,0.00,,,0.00,,2013-04-08 11:42:00,
2013-04-08 07:53:00,55.0,55.0,30.16,WSW,239,3.0,4.0,100,0.00,,,0.00,,2013-04-08 11:53:00,
2013-04-08 08:03:00,55.0,55.0,30.17,WSW,248,0.0,2.0,100,0.00,,,0.00,,2013-04-08 12:03:00,
2013-04-08 08:12:00,55.0,55.0,30.17,WSW,248,0.0,2.0,100,0.00,,,0.00,,2013-04-08 12:12:00,
2013-04-08 08:23:00,57.0,57.0,30.17,WSW,256,1.0,3.0,100,0.00,,,0.00,,2013-04-08 12:23:00,
2013-04-08 08:33:00,58.0,58.0,30.17,SSE,163,1.0,2.0,100,0.00,,,0.00,,2013-04-08 12:33:00,
2013-04-08 08:42:00,58.0,58.0,30.17,SSE,163,1.0,2.0,100,0.00,,,0.00,,2013-04-08 12:42:00,
2013-04-08 08:53:00,59.0,58.0,30.17,North,359,1.0,9.0,98,0.00,,,0.00,,2013-04-08 12:53:00,
2013-04-08 09:03:00,61.0,60.0,30.17,North,359,1.0,7.0,96,0.00,,,0.00,,2013-04-08 13:03:00,
2013-04-08 09:12:00,61.0,60.0,30.17,North,359,1.0,7.0,96,0.00,,,0.00,,2013-04-08 13:12:00,
2013-04-08 09:22:00,61.0,59.0,30.17,WNW,284,9.0,13.0,92,0.00,,,0.00,,2013-04-08 13:22:00,
2013-04-08 09:32:00,62.0,59.0,30.17,South,188,2.0,6.0,91,0.00,,,0.00,,2013-04-08 13:32:00,
2013-04-08 09:43:00,62.0,59.0,30.17,South,188,2.0,6.0,91,0.00,,,0.00,,2013-04-08 13:43:00,
2013-04-08 09:52:00,63.0,59.0,30.17,North,359,1.0,11.0,88,0.00,,,0.00,,2013-04-08 13:52:00,
2013-04-08 10:03:00,65.0,60.0,30.16,West,260,2.0,9.0,83,0.00,,,0.00,,2013-04-08 14:03:00,
2013-04-08 10:12:00,66.0,59.0,30.16,North,359,3.0,9.0,79,0.00,,,0.00,,2013-04-08 14:12:00,
2013-04-08 10:22:00,66.0,59.0,30.16,North,359,3.0,9.0,79,0.00,,,0.00,,2013-04-08 14:22:00,
2013-04-08 10:32:00,68.0,58.0,30.16,NW,322,4.0,10.0,71,0.00,,,0.00,,2013-04-08 14:32:00,
2013-04-08 10:42:00,69.0,57.0,30.16,SW,224,3.0,19.0,65,0.00,,,0.00,,2013-04-08 14:42:00,
2013-04-08 10:52:00,69.0,57.0,30.16,SW,224,3.0,19.0,65,0.00,,,0.00,,2013-04-08 14:52:00,
2013-04-08 11:02:00,69.0,56.0,30.16,WSW,245,5.0,12.0,63,0.00,,,0.00,,2013-04-08 15:02:00,
2013-04-08 11:12:00,70.0,56.0,30.16,WNW,287,4.0,12.0,61,0.00,,,0.00,,2013-04-08 15:12:00,
2013-04-08 11:22:00,70.0,56.0,30.16,WNW,287,4.0,12.0,61,0.00,,,0.00,,2013-04-08 15:22:00,
2013-04-08 11:43:00,70.0,55.0,30.15,SW,226,5.0,17.0,60,0.00,,,0.00,,2013-04-08 15:43:00,
2013-04-08 11:53:00,72.0,56.0,30.15,West,271,3.0,10.0,58,0.00,,,0.00,,2013-04-08 15:53:00,
2013-04-08 12:03:00,73.0,57.0,30.16,South,181,3.0,10.0,57,0.00,,,0.00,,2013-04-08 16:03:00,
2013-04-08 12:13:00,74.0,57.0,30.15,SW,221,7.0,14.0,56,0.00,,,0.00,,2013-04-08 16:13:00,
2013-04-08 12:23:00,74.0,57.0,30.15,SW,221,7.0,14.0,56,0.00,,,0.00,,2013-04-08 16:23:00,
2013-04-08 12:32:00,74.0,57.0,30.15,SW,221,7.0,14.0,56,0.00,,,0.00,,2013-04-08 16:32:00,
2013-04-08 12:42:00,75.0,58.0,30.15,SSE,155,3.0,9.0,55,0.00,,,0.00,,2013-04-08 16:42:00,
2013-04-08 12:53:00,76.0,57.0,30.14,SW,228,5.0,11.0,52,0.00,,,0.00,,2013-04-08 16:53:00,
2013-04-08 13:03:00,76.0,56.0,30.13,WSW,242,9.0,13.0,50,0.00,,,0.00,,2013-04-08 17:03:00,
2013-04-08 13:12:00,75.0,56.0,30.12,South,180,4.0,15.0,51,0.00,,,0.00,,2013-04-08 17:12:00,
2013-04-08 13:23:00,75.0,56.0,30.12,South,180,4.0,15.0,51,0.00,,,0.00,,2013-04-08 17:23:00,
2013-04-08 13:32:00,74.0,56.0,30.11,WSW,240,4.0,10.0,54,0.00,,,0.00,,2013-04-08 17:32:00,
2013-04-08 13:43:00,74.0,56.0,30.11,WSW,240,4.0,10.0,54,0.00,,,0.00,,2013-04-08 17:43:00,
2013-04-08 13:52:00,74.0,55.0,30.11,WSW,255,7.0,11.0,52,0.00,,,0.00,,2013-04-08 17:52:00,
2013-04-08 14:02:00,76.0,55.0,30.10,West,280,5.0,11.0,48,0.00,,,0.00,,2013-04-08 18:02:00,
2013-04-08 14:12:00,77.0,55.0,30.09,SE,131,3.0,15.0,47,0.00,,,0.00,,2013-04-08 18:12:00,
2013-04-08 14:23:00,77.0,55.0,30.09,SE,131,3.0,15.0,47,0.00,,,0.00,,2013-04-08 18:23:00,
2013-04-08 14:32:00,78.0,56.0,30.09,South,174,2.0,10.0,46,0.00,,,0.00,,2013-04-08 18:32:00,
2013-04-08 14:42:00,77.0,55.0,30.08,South,191,7.0,15.0,46,0.00,,,0.00,,2013-04-08 18:42:00,
2013-04-08 14:52:00,77.0,55.0,30.08,South,191,7.0,15.0,46,0.00,,,0.00,,2013-04-08 18:52:00,
2013-04-08 15:02:00,76.0,55.0,30.08,South,183,4.0,9.0,48,0.00,,,0.00,,2013-04-08 19:02:00,
2013-04-08 15:12:00,78.0,56.0,30.07,West,259,3.0,9.0,46,0.00,,,0.00,,2013-04-08 19:12:00,
2013-04-08 15:23:00,78.0,56.0,30.07,West,259,3.0,9.0,46,0.00,,,0.00,,2013-04-08 19:23:00,
2013-04-08 15:33:00,77.0,55.0,30.07,South,190,5.0,11.0,46,0.00,,,0.00,,2013-04-08 19:33:00,
2013-04-08 15:42:00,78.0,54.0,30.06,SSW,194,8.0,14.0,43,0.00,,,0.00,,2013-04-08 19:42:00,
2013-04-08 15:52:00,78.0,54.0,30.06,SSW,194,8.0,14.0,43,0.00,,,0.00,,2013-04-08 19:52:00,
2013-04-08 16:02:00,78.0,53.0,30.06,WSW,249,4.0,10.0,42,0.00,,,0.00,,2013-04-08 20:02:00,
2013-04-08 16:12:00,78.0,54.0,30.05,South,177,6.0,15.0,44,0.00,,,0.00,,2013-04-08 20:12:00,
2013-04-08 16:23:00,78.0,54.0,30.05,South,177,6.0,15.0,44,0.00,,,0.00,,2013-04-08 20:23:00,
2013-04-08 16:33:00,78.0,54.0,30.04,SSW,212,4.0,7.0,44,0.00,,,0.00,,2013-04-08 20:33:00,
2013-04-08 16:43:00,78.0,54.0,30.04,SSW,212,4.0,7.0,44,0.00,,,0.00,,2013-04-08 20:43:00,
2013-04-08 16:52:00,78.0,54.0,30.04,SSW,212,5.0,9.0,44,0.00,,,0.00,,2013-04-08 20:52:00,
2013-04-08 17:02:00,79.0,55.0,30.03,South,188,2.0,9.0,44,0.00,,,0.00,,2013-04-08 21:02:00,
2013-04-08 17:12:00,78.0,54.0,30.03,SSW,205,4.0,10.0,43,0.00,,,0.00,,2013-04-08 21:12:00,
2013-04-08 17:22:00,78.0,54.0,30.03,SSW,205,4.0,10.0,43,0.00,,,0.00,,2013-04-08 21:22:00,
2013-04-08 17:32:00,77.0,53.0,30.03,SSE,163,4.0,10.0,43,0.00,,,0.00,,2013-04-08 21:32:00,
2013-04-08 17:43:00,77.0,53.0,30.03,SSE,163,4.0,10.0,43,0.00,,,0.00,,2013-04-08 21:43:00,
2013-04-08 17:53:00,77.0,52.0,30.03,South,188,4.0,10.0,42,0.00,,,0.00,,2013-04-08 21:53:00,
2013-04-08 18:03:00,76.0,52.0,30.03,West,263,6.0,9.0,43,0.00,,,0.00,,2013-04-08 22:03:00,
2013-04-08 18:13:00,76.0,52.0,30.03,West,263,6.0,9.0,43,0.00,,,0.00,,2013-04-08 22:13:00,
2013-04-08 18:23:00,76.0,54.0,30.04,ENE,72,1.0,7.0,46,0.00,,,0.00,,2013-04-08 22:23:00,
2013-04-08 18:32:00,76.0,54.0,30.04,ENE,72,1.0,7.0,46,0.00,,,0.00,,2013-04-08 22:32:00,
2013-04-08 18:43:00,75.0,53.0,30.03,SSE,152,4.0,7.0,47,0.00,,,0.00,,2013-04-08 22:43:00,
2013-04-08 18:53:00,74.0,52.0,30.03,South,181,3.0,8.0,46,0.00,,,0.00,,2013-04-08 22:53:00,
2013-04-08 19:02:00,75.0,53.0,30.04,NNE,23,4.0,8.0,46,0.00,,,0.00,,2013-04-08 23:02:00,
2013-04-08 19:12:00,75.0,53.0,30.04,NNE,23,4.0,8.0,46,0.00,,,0.00,,2013-04-08 23:12:00,
2013-04-08 19:22:00,75.0,53.0,30.04,NNE,23,4.0,8.0,46,0.00,,,0.00,,2013-04-08 23:22:00,
2013-04-08 19:32:00,72.0,54.0,30.05,South,188,1.0,4.0,54,0.00,,,0.00,,2013-04-08 23:32:00,
2013-04-08 19:43:00,70.0,55.0,30.05,North,3,0.0,2.0,58,0.00,,,0.00,,2013-04-08 23:43:00,
2013-04-08 19:52:00,70.0,55.0,30.05,North,3,0.0,2.0,58,0.00,,,0.00,,2013-04-08 23:52:00,
2013-04-08 20:02:00,69.0,55.0,30.05,North,3,0.0,1.0,60,0.00,,,0.00,,2013-04-09 00:02:00,
2013-04-08 20:12:00,69.0,55.0,30.05,North,3,0.0,1.0,60,0.00,,,0.00,,2013-04-09 00:12:00,
2013-04-08 20:22:00,68.0,55.0,30.06,North,3,0.0,0.0,64,0.00,,,0.00,,2013-04-09 00:22:00,
2013-04-08 20:32:00,67.0,54.0,30.06,North,3,0.0,0.0,64,0.00,,,0.00,,2013-04-09 00:32:00,
2013-04-08 20:42:00,67.0,55.0,30.06,North,3,0.0,0.0,65,0.00,,,0.00,,2013-04-09 00:42:00,
2013-04-08 20:52:00,67.0,55.0,30.06,North,3,0.0,0.0,65,0.00,,,0.00,,2013-04-09 00:52:00,
2013-04-08 21:02:00,66.0,54.0,30.06,North,3,0.0,0.0,66,0.00,,,0.00,,2013-04-09 01:02:00,
2013-04-08 21:12:00,66.0,54.0,30.06,North,3,0.0,0.0,65,0.00,,,0.00,,2013-04-09 01:12:00,
2013-04-08 21:22:00,66.0,54.0,30.06,North,3,0.0,0.0,65,0.00,,,0.00,,2013-04-09 01:22:00,
2013-04-08 21:33:00,66.0,54.0,30.07,North,3,0.0,0.0,65,0.00,,,0.00,,2013-04-09 01:33:00,
2013-04-08 21:42:00,65.0,54.0,30.07,North,3,0.0,0.0,68,0.00,,,0.00,,2013-04-09 01:42:00,
2013-04-08 21:52:00,65.0,54.0,30.07,North,3,0.0,0.0,68,0.00,,,0.00,,2013-04-09 01:52:00,
2013-04-08 22:02:00,65.0,55.0,30.08,North,3,0.0,0.0,69,0.00,,,0.00,,2013-04-09 02:02:00,
2013-04-08 22:13:00,65.0,55.0,30.08,North,3,0.0,0.0,69,0.00,,,0.00,,2013-04-09 02:13:00,
2013-04-08 22:22:00,65.0,55.0,30.08,North,3,0.0,0.0,69,0.00,,,0.00,,2013-04-09 02:22:00,
2013-04-08 22:33:00,64.0,54.0,30.09,North,3,0.0,0.0,70,0.00,,,0.00,,2013-04-09 02:33:00,
2013-04-08 22:43:00,64.0,54.0,30.09,North,3,0.0,0.0,69,0.00,,,0.00,,2013-04-09 02:43:00,
2013-04-08 22:52:00,64.0,54.0,30.09,North,3,0.0,0.0,69,0.00,,,0.00,,2013-04-09 02:52:00,
2013-04-08 23:02:00,64.0,55.0,30.09,North,3,0.0,0.0,72,0.00,,,0.00,,2013-04-09 03:02:00,
2013-04-08 23:12:00,64.0,55.0,30.09,North,3,0.0,0.0,72,0.00,,,0.00,,2013-04-09 03:12:00,
2013-04-08 23:22:00,64.0,54.0,30.08,SSE,160,0.0,2.0,71,0.00,,,0.00,,2013-04-09 03:22:00,
2013-04-08 23:33:00,64.0,54.0,30.08,East,90,0.0,2.0,70,0.00,,,0.00,,2013-04-09 03:33:00,
2013-04-08 23:43:00,64.0,54.0,30.08,East,90,0.0,2.0,70,0.00,,,0.00,,2013-04-09 03:43:00,
2013-04-08 23:53:00,64.0,55.0,30.08,SSW,210,1.0,3.0,73,0.00,,,0.00,,2013-04-09 03:53:00,